Hourly Weather Barlomino

Today, 19 April, Monday

Time Temperature Precipitation Wind Pressure Humidity
00:00 +6°C° 0 mm 2 mps 755 mmHg 82%
01:00 +5°C° 0 mm 2 mps 754 mmHg 83%
02:00 +5°C° 0 mm 2 mps 754 mmHg 85%
03:00 +5°C° 0 mm 2 mps 754 mmHg 87%
04:00 +6°C° 0 mm 2 mps 754 mmHg 89%
05:00 +7°C° 0 mm 2 mps 754 mmHg 84%
06:00 +8°C° 0 mm 2 mps 754 mmHg 79%
07:00 +9°C° 0 mm 3 mps 754 mmHg 75%
08:00 +11°C° 0 mm 3 mps 754 mmHg 68%
09:00 +12°C° 0 mm 4 mps 754 mmHg 62%
10:00 +13°C° 0 mm 4 mps 754 mmHg 55%
11:00 +14°C° 0 mm 4 mps 754 mmHg 53%
12:00 +14°C° 0 mm 4 mps 754 mmHg 50%
13:00 +14°C° 0 mm 5 mps 754 mmHg 47%
14:00 +14°C° 0 mm 5 mps 754 mmHg 48%
15:00 +13°C° 0 mm 5 mps 754 mmHg 50%
16:00 +13°C° 0 mm 5 mps 753 mmHg 51%
17:00 +11°C° 0 mm 4 mps 754 mmHg 57%
18:00 +10°C° 0 mm 3 mps 754 mmHg 63%
19:00 +8°C° 0 mm 3 mps 754 mmHg 69%
20:00 +8°C° 0 mm 3 mps 754 mmHg 69%
21:00 +8°C° 0 mm 2 mps 753 mmHg 68%
22:00 +8°C° 0 mm 2 mps 753 mmHg 68%
23:00 +8°C° 0 mm 2 mps 753 mmHg 68%

Tomorrow, 20 April, Tuesday

Time Temperature Precipitation Wind Pressure Humidity
00:00 +9°C° 0 mm 2 mps 753 mmHg 68%
01:00 +10°C° 0 mm 1 mps 753 mmHg 68%
02:00 +10°C° 0 mm 1 mps 753 mmHg 69%
03:00 +10°C° 0 mm 1 mps 752 mmHg 70%
04:00 +9°C° 0 mm 1 mps 752 mmHg 71%
05:00 +9°C° 0 mm 2 mps 752 mmHg 70%
06:00 +9°C° 0 mm 2 mps 752 mmHg 69%
07:00 +10°C° 0 mm 2 mps 752 mmHg 68%
08:00 +12°C° 0.1 mm 2 mps 752 mmHg 62%
09:00 +13°C° 0.1 mm 2 mps 752 mmHg 55%
10:00 +13°C° 0.1 mm 3 mps 752 mmHg 49%
11:00 +13°C° 0.1 mm 3 mps 752 mmHg 48%
12:00 +13°C° 0.1 mm 3 mps 751 mmHg 47%
13:00 +14°C° 0.1 mm 2 mps 751 mmHg 46%
14:00 +14°C° 0 mm 2 mps 751 mmHg 47%
15:00 +13°C° 0 mm 3 mps 750 mmHg 48%
16:00 +13°C° 0 mm 3 mps 750 mmHg 49%
17:00 +12°C° 0 mm 2 mps 750 mmHg 56%
18:00 +10°C° 0 mm 2 mps 750 mmHg 63%
19:00 +8°C° 0 mm 2 mps 750 mmHg 71%
20:00 +9°C° 0 mm 1 mps 750 mmHg 73%
21:00 +8°C° 0 mm 1 mps 749 mmHg 74%
22:00 +7°C° 0 mm 1 mps 749 mmHg 76%
23:00 +7°C° 0 mm 1 mps 749 mmHg 76%

Day after tomorrow, 21 April, Wednesday

Time Temperature Precipitation Wind Pressure Humidity
00:00 +7°C° 0 mm 1 mps 749 mmHg 76%
01:00 +7°C° 0 mm 1 mps 749 mmHg 75%
02:00 +6°C° 0 mm 1 mps 748 mmHg 77%
03:00 +5°C° 0 mm 2 mps 748 mmHg 78%
04:00 +5°C° 0 mm 2 mps 748 mmHg 79%
05:00 +6°C° 0 mm 2 mps 748 mmHg 74%
06:00 +7°C° 0 mm 2 mps 747 mmHg 69%
07:00 +8°C° 0 mm 3 mps 747 mmHg 64%
08:00 +10°C° 0 mm 3 mps 747 mmHg 58%
09:00 +11°C° 0 mm 3 mps 747 mmHg 52%
10:00 +12°C° 0 mm 4 mps 747 mmHg 47%
11:00 +12°C° 0 mm 4 mps 746 mmHg 49%
12:00 +12°C° 0 mm 5 mps 746 mmHg 52%
13:00 +10°C° 0 mm 5 mps 746 mmHg 55%
14:00 +10°C° 0 mm 6 mps 746 mmHg 59%
15:00 +9°C° 0 mm 6 mps 746 mmHg 62%
16:00 +9°C° 0 mm 7 mps 745 mmHg 65%
17:00 +8°C° 0 mm 7 mps 745 mmHg 66%
18:00 +5°C° 0 mm 6 mps 745 mmHg 66%
19:00 +4°C° 0 mm 6 mps 745 mmHg 66%
20:00 +3°C° 0 mm 6 mps 745 mmHg 64%
21:00 +3°C° 0 mm 7 mps 745 mmHg 63%
22:00 +2°C° 0 mm 7 mps 745 mmHg 61%
23:00 +2°C° 0 mm 7 mps 744 mmHg 65%

22 April, Thursday

Time Temperature Precipitation Wind Pressure Humidity
00:00 +1°C° 0 mm 8 mps 744 mmHg 69%
01:00 0°C° 0 mm 8 mps 744 mmHg 72%
02:00 0°C° 0 mm 9 mps 744 mmHg 72%
03:00 0°C° 0 mm 9 mps 744 mmHg 72%
04:00 0°C° 0 mm 9 mps 743 mmHg 72%
05:00 +1°C° 0 mm 9 mps 743 mmHg 72%
06:00 +1°C° 0 mm 10 mps 743 mmHg 71%
07:00 +1°C° 0 mm 10 mps 743 mmHg 70%
08:00 +2°C° 0.1 mm 10 mps 744 mmHg 67%
09:00 +3°C° 0.1 mm 10 mps 744 mmHg 64%
10:00 +5°C° 0.1 mm 10 mps 744 mmHg 61%
11:00 +5°C° 0.2 mm 10 mps 744 mmHg 58%
12:00 +5°C° 0.2 mm 10 mps 744 mmHg 55%
13:00 +6°C° 0.2 mm 9 mps 745 mmHg 52%
14:00 +5°C° 0.1 mm 9 mps 745 mmHg 57%
15:00 +3°C° 0.1 mm 9 mps 745 mmHg 62%
16:00 +3°C° 0.1 mm 9 mps 745 mmHg 67%
17:00 +2°C° 0.1 mm 8 mps 745 mmHg 73%
18:00 +2°C° 0.1 mm 8 mps 745 mmHg 80%
19:00 +2°C° 0.1 mm 7 mps 745 mmHg 86%
20:00 +2°C° 0.2 mm 7 mps 746 mmHg 88%
21:00 +2°C° 0.2 mm 6 mps 746 mmHg 89%
22:00 +2°C° 0.2 mm 6 mps 746 mmHg 91%
23:00 +2°C° 0.1 mm 6 mps 747 mmHg 90%

23 April, Friday

Time Temperature Precipitation Wind Pressure Humidity
00:00 +2°C° 0.1 mm 6 mps 747 mmHg 90%
01:00 +2°C° 0.1 mm 6 mps 748 mmHg 89%
02:00 +1°C° 0.1 mm 6 mps 748 mmHg 90%
03:00 +1°C° 0.1 mm 5 mps 748 mmHg 92%
04:00 +1°C° 0.1 mm 5 mps 749 mmHg 94%
05:00 +1°C° 0.3 mm 4 mps 749 mmHg 94%
06:00 +1°C° 0.3 mm 4 mps 750 mmHg 94%
07:00 +1°C° 0.3 mm 4 mps 751 mmHg 95%
08:00 +3°C° 0.1 mm 4 mps 751 mmHg 83%
09:00 +5°C° 0.1 mm 5 mps 751 mmHg 71%
10:00 +6°C° 0.1 mm 5 mps 752 mmHg 59%
11:00 +6°C° 0 mm 5 mps 752 mmHg 52%
12:00 +7°C° 0 mm 5 mps 752 mmHg 45%
13:00 +8°C° 0 mm 6 mps 752 mmHg 38%
14:00 +8°C° 0 mm 5 mps 752 mmHg 38%
15:00 +7°C° 0 mm 5 mps 753 mmHg 39%
16:00 +7°C° 0 mm 4 mps 753 mmHg 39%
17:00 +7°C° 0 mm 3 mps 752 mmHg 48%
18:00 +6°C° 0 mm 2 mps 752 mmHg 56%
19:00 +6°C° 0 mm 1 mps 752 mmHg 64%
20:00 +4°C° 0.1 mm 2 mps 751 mmHg 72%
21:00 +3°C° 0.1 mm 3 mps 751 mmHg 79%
22:00 +2°C° 0.1 mm 3 mps 751 mmHg 86%
23:00 +1°C° 0.1 mm 4 mps 750 mmHg 87%

24 April, Saturday

Time Temperature Precipitation Wind Pressure Humidity
00:00 +1°C° 0.1 mm 4 mps 750 mmHg 88%
01:00 +1°C° 0.1 mm 4 mps 749 mmHg 89%
02:00 +1°C° 0 mm 4 mps 749 mmHg 90%
03:00 +1°C° 0 mm 4 mps 749 mmHg 91%
04:00 0°C° 0 mm 5 mps 749 mmHg 92%
05:00 +1°C° 0 mm 4 mps 750 mmHg 87%
06:00 +1°C° 0 mm 4 mps 750 mmHg 82%
07:00 +3°C° 0 mm 3 mps 751 mmHg 77%
08:00 +4°C° 0 mm 3 mps 751 mmHg 67%
09:00 +5°C° 0 mm 3 mps 751 mmHg 58%
10:00 +7°C° 0 mm 3 mps 751 mmHg 48%
11:00 +6°C° 0 mm 4 mps 752 mmHg 45%
12:00 +6°C° 0 mm 5 mps 752 mmHg 42%
13:00 +7°C° 0 mm 5 mps 752 mmHg 39%
14:00 +5°C° 0 mm 6 mps 752 mmHg 39%
15:00 +5°C° 0 mm 6 mps 752 mmHg 40%
16:00 +4°C° 0 mm 6 mps 753 mmHg 40%
17:00 +3°C° 0 mm 5 mps 753 mmHg 47%
18:00 +2°C° 0 mm 5 mps 753 mmHg 54%
19:00 +1°C° 0 mm 5 mps 754 mmHg 61%
20:00 +1°C° 0 mm 5 mps 754 mmHg 68%
21:00 0°C° 0 mm 5 mps 754 mmHg 74%
22:00 0°C° 0 mm 5 mps 755 mmHg 81%
23:00 0°C° 0 mm 5 mps 755 mmHg 82%
Show more